Date,TemperatureHighF,TemperatureAvgF,TemperatureLowF,DewpointHighF,DewpointAvgF,DewpointLowF,HumidityHigh,HumidityAvg,HumidityLow,PressureMaxIn,PressureMinIn,WindSpeedMaxMPH,WindSpeedAvgMPH,GustSpeedMaxMPH,PrecipitationSumIn
2013-3-1,57.0,53.5,50.0,-99.9,-99.9,-99.9,0,0,100,30.44,30.32,18,0,23,0.00
2013-3-2,54.0,46.8,42.0,-99.9,-99.9,-99.9,0,0,100,30.33,30.15,15,-87,20,0.00
2013-3-3,49.0,42.2,36.0,-99.9,-99.9,-99.9,0,0,100,30.32,30.28,11,-80,17,0.00
2013-3-4,57.0,42.5,33.0,-99.9,-99.9,-99.9,0,0,100,30.29,29.92,13,-59,17,0.00
2013-3-5,46.0,41.2,35.0,-99.9,-99.9,-99.9,0,0,100,29.93,29.69,15,-37,21,0.00
2013-3-6,45.0,42.9,41.0,-99.9,-99.9,-99.9,0,0,100,29.95,29.57,14,-172,17,0.00
2013-3-7,55.0,46.0,40.0,-99.9,-99.9,-99.9,0,0,100,30.07,29.94,15,-63,19,0.00
2013-3-8,56.0,43.9,37.0,-99.9,-99.9,-99.9,0,0,100,30.24,30.07,8,-25,13,0.00
2013-3-9,55.0,42.6,34.0,-99.9,-99.9,-99.9,0,0,100,30.52,30.24,9,-46,10,0.00
2013-3-10,47.0,41.7,36.0,-99.9,-99.9,-99.9,0,0,100,30.52,30.43,6,-158,9,0.00
2013-3-11,52.0,47.5,44.0,-99.9,-99.9,-99.9,0,0,100,30.45,30.24,11,-67,13,0.00
2013-3-12,58.0,52.8,49.0,-99.9,-99.9,-99.9,0,0,100,30.24,30.15,13,-16,17,0.00
2013-3-13,59.0,52.8,49.0,-99.9,-99.9,-99.9,0,0,100,30.23,30.10,12,-9,16,0.00
2013-3-14,55.0,50.3,47.0,-99.9,-99.9,-99.9,0,0,100,30.20,30.06,12,-38,17,0.00
2013-3-15,59.0,52.5,47.0,-99.9,-99.9,-99.9,0,0,100,30.23,30.19,12,-2,13,0.00
2013-3-16,50.0,46.4,40.0,-99.9,-99.9,-99.9,0,0,100,30.19,30.02,18,-43,28,0.00
2013-3-17,46.0,41.2,38.0,-99.9,-99.9,-99.9,0,0,100,30.30,30.12,13,-613,17,0.00
2013-3-18,52.0,43.4,39.0,-99.9,-99.9,-99.9,0,0,100,30.28,30.21,3,-964,6,0.00
2013-3-19,50.0,42.2,37.0,-99.9,-99.9,-99.9,0,0,100,30.21,29.65,0,-999,0,0.00
2013-3-20,52.0,46.6,39.0,-99.9,-99.9,-99.9,0,0,100,30.15,29.48,19,-748,29,0.00
2013-3-21,44.0,39.3,36.0,-99.9,-99.9,-99.9,0,0,100,30.31,30.14,14,-957,19,0.00
2013-3-22,45.0,39.2,36.0,-99.9,-99.9,-99.9,0,0,100,30.41,30.30,0,-999,0,0.00
2013-3-23,49.0,39.8,34.0,-99.9,-99.9,-99.9,0,0,100,30.42,30.30,0,-999,0,0.00
2013-3-24,55.0,43.6,35.0,-99.9,-99.9,-99.9,0,0,100,30.31,30.11,0,-999,0,0.00
2013-3-25,62.0,48.3,38.0,-99.9,-99.9,-99.9,0,0,100,30.12,29.91,0,-999,0,0.00
2013-3-26,55.0,49.3,45.0,-99.9,-99.9,-99.9,0,0,100,30.03,29.98,9,-591,12,0.00
2013-3-27,62.0,51.8,46.0,-99.9,-99.9,-99.9,0,0,100,30.01,29.91,11,-101,12,0.00
2013-3-28,61.0,52.9,48.0,-99.9,-99.9,-99.9,0,0,100,30.15,30.01,10,-80,12,0.00
2013-3-29,66.0,55.3,48.0,-99.9,-99.9,-99.9,0,0,100,30.23,30.14,8,-45,9,0.00
2013-3-30,73.0,58.6,47.0,-99.9,-99.9,-99.9,0,0,100,30.23,30.02,11,-18,16,0.00
2013-3-31,76.0,57.6,48.0,-99.9,-99.9,-99.9,0,0,100,30.03,29.89,12,-39,15,0.00